Regional Weather Roundup
Issued by NWS Goodland, KS

Home | Current Version | Previous Version | Graphics & Text | Print | Product List | Glossary On
Versions: 1 2 3 4 5 6 7 8 9 10 11 12 13 14 15 16 17 18 19 20 21 22 23 24 25 26 27 28 29 30 31 32 33 34 35 36 37 38 39 40 41 42 43 44 45 46 47 48 49 50
000
ASUS43 KGLD 300708
RWRGLD

GOODLAND FORECAST AREA HOURLY WEATHER ROUNDUP
NATIONAL WEATHER SERVICE GOODLAND KS
1200 AM MST FRI JAN 30 2015

...OFFICIAL OBSERVATIONS...

CITY           SKY/WX    TMP DP  RH WIND       PRES   REMARKS
GOODLAND KS    CLOUDY    31  21  66 S10       30.44F
HILL CITY KS   PTCLDY    19  13  77 CALM      30.49F
IMPERIAL NEB   PTCLDY    26  18  71 SW7       30.43F
MCCOOK NEB     CLEAR     23  16  74 CALM      30.46F
AKRON CO       CLOUDY    34  17  50 S13       30.36F
BURLINGTON CO  MOCLDY    31  21  66 S13       30.41F
LIMON CO       MOCLDY    27  21  78 S7        30.37F
$$

...UNOFFICIAL OBSERVATIONS...

CITY           SKY/WX    TMP DP  RH WIND       PRES   REMARKS
COLBY KS       CLEAR     25  23  93 S5        30.46F
GOVE KS          N/A     18  32 100 MISG        N/A
NORTON KS      CLEAR     18  12  79 SW6       30.47F
SHARON SPRINGS   N/A     26  20  77 S6          N/A
KIT CARSON CO    N/A     27  16  63 MISG        N/A
YUMA CO          N/A     27  18  69 S7          N/A
$$


USA.gov is the U.S. government's official web portal to all federal, state and local government web resources and services.